Terug naar catalogus

STARLINK-38083

ActiefCommunicatieSSO
NORAD 100385·PAYLOAD·🇺🇸 United States

Gelanceerd Aug 19, 2026 vanaf Vandenberg Space Force Base

Loading…

Volgende Passages (komende 24 uur)

TLE

VersSource: Space-Track

Epoch: Sep 14, 2026, 22:00 UTC

1 A0385U 26190Q   26257.91706566 -.00816963  00000-0 -67330-2 0  9992
2 A0385  97.2819 111.9481 0002695  84.1190 276.0381 15.72586105  5499

Volg STARLINK-38083 in realtime met AllMySat

Download on the App Store